DW3310 Weather Reports


Display with metric or nautical units.
time (UTC)temp
F
wind
direction
speed
MPH
gust
MPH
rain 1hr
in
rain 24hr
in
rain mn
in
humidity
%
barometer
mb
20260902110044 59 125 2.0 3.0 0.00 0.00 0.00 1 1022.6
20260902104538 58 126 2.0 4.0 0.00 0.00 0.00 1 1022.5
20260902103030 58 121 2.0 6.0 0.00 0.00 0.00 1 1022.3
20260902101527 59 123 3.0 6.0 0.00 0.00 0.00 1 1022.1
20260902100021 59 130 3.0 5.0 0.00 0.00 0.00 1 1022.1
20260902094515 60 144 2.0 7.0 0.00 0.00 0.00 6 1022.0
20260902093009 60 150 2.0 5.0 0.00 0.00 0.00 13 1021.9
20260902091505 60 146 1.0 4.0 0.00 0.00 0.00 14 1021.9
20260902090000 60 148 2.0 6.0 0.00 0.00 0.00 12 1021.8
20260902084602 60 155 0.0 3.0 0.00 0.00 0.00 9 1021.8
20260902083055 59 159 3.0 7.0 0.00 0.00 0.00 3 1021.9
20260902081556 60 176 3.0 6.0 0.00 0.00 0.00 5 1022.0
20260902080043 59 184 3.0 8.0 0.00 0.00 0.00 7 1022.0
20260902074538 60 192 2.0 6.0 0.00 0.00 0.00 21 1022.0
20260902073043 60 209 2.0 6.0 0.00 0.00 0.00 29 1021.8
20260902071529 60 184 2.0 5.0 0.00 0.00 0.00 34 1021.8
20260902070024 60 174 4.0 8.0 0.00 0.00 0.00 40 1021.6
20260902064520 61 155 3.0 6.0 0.00 0.00 0.00 35 1021.7
20260902063015 61 154 1.0 3.0 0.00 0.00 0.00 22 1021.5
20260902061513 61 154 1.0 3.0 0.00 0.00 0.00 5 1021.5
20260902060008 61 154 0.0 3.0 0.00 0.00 0.00 1 1021.4
20260902054504 61 154 2.0 3.0 0.00 0.00 0.00 1 1021.4
20260902053109 61 154 1.0 3.0 0.00 0.00 0.00 5 1021.2
20260902051556 62 154 0.0 2.0 0.00 0.00 0.00 9 1021.2
20260902050107 62 154 0.0 0.0 0.00 0.00 0.00 16 1021.0
20260902044549 62 154 0.0 0.0 0.00 0.00 0.00 22 1020.7
20260902043050 62 154 0.0 0.0 0.00 0.00 0.00 20 1020.4
20260902041544 62 154 0.0 2.0 0.00 0.00 0.00 25 1020.4
20260902040042 62 154 0.0 1.0 0.00 0.00 0.00 26 1020.3
20260902034537 62 154 1.0 5.0 0.00 0.00 0.00 25 1020.3
20260902033036 61 155 4.0 6.0 0.00 0.00 0.00 5 1020.0
20260902031527 61 161 3.0 6.0 0.00 0.00 0.00 1 1020.1
20260902030024 61 160 4.0 6.0 0.00 0.00 0.00 1 1020.1
20260902024518 61 182 2.0 5.0 0.00 0.00 0.00 1 1020.1
20260902023014 61 172 3.0 6.0 0.00 0.00 0.00 1 1019.9
20260902021509 62 157 2.0 6.0 0.00 0.00 0.00 2 1019.8
20260902020005 63 182 2.0 4.0 0.00 0.00 0.00 1 1020.0
20260902014601 63 188 1.0 4.0 0.00 0.00 0.00 5 1020.0
20260902013056 63 189 1.0 3.0 0.00 0.00 0.00 7 1019.9
20260902011554 64 189 0.0 1.0 0.00 0.00 0.00 6 1020.0
20260902010101 64 189 0.0 3.0 0.00 0.00 0.00 6 1019.9
20260902004542 64 195 1.0 4.0 0.00 0.00 0.00 9 1019.7
20260902003037 64 194 2.0 6.0 0.00 0.00 0.00 14 1019.3
20260902001532 65 206 3.0 7.0 0.00 0.00 0.00 18 1019.2
20260902000028 65 198 3.0 8.0 0.00 0.00 0.00 28 1019.1
20260901234522 65 210 3.0 5.0 0.00 0.00 0.00 46 1018.8
20260901233019 65 134 1.0 9.0 0.00 0.00 0.00 57 1018.5
20260901231515 66 134 3.0 9.0 0.00 0.00 0.00 55 1018.8
20260901230010 67 167 3.0 7.0 0.00 0.00 0.00 57 1018.9
20260901224505 67 136 2.0 6.0 0.00 0.00 0.00 59 1018.9
20260901223102 67 161 2.0 7.0 0.00 0.00 0.00 62 1018.7
20260901221601 67 157 1.0 5.0 0.00 0.00 0.00 63 1018.6
20260901220051 68 153 3.0 8.0 0.00 0.00 0.00 63 1018.4
20260901214557 69 165 5.0 10.0 0.00 0.00 0.00 62 1018.3
20260901213042 70 175 2.0 6.0 0.00 0.00 0.00 62 1018.2
20260901211538 70 154 1.0 5.0 0.00 0.00 0.00 62 1018.3
20260901210035 71 132 3.0 9.0 0.00 0.00 0.00 60 1018.1
20260901204534 72 147 2.0 9.0 0.00 0.00 0.00 58 1017.9
20260901203027 71 134 3.0 9.0 0.00 0.00 0.00 58 1017.7
20260901201520 71 135 4.0 9.0 0.00 0.00 0.00 60 1017.7
20260901200017 71 160 3.0 7.0 0.00 0.00 0.00 61 1017.9
20260901194510 72 147 2.0 8.0 0.00 0.00 0.00 60 1017.9
20260901193007 72 205 2.0 7.0 0.00 0.00 0.00 59 1017.9
20260901191502 71 179 2.0 11.0 0.00 0.00 0.00 57 1018.1
20260901190058 70 116 2.0 12.0 0.00 0.00 0.00 59 1018.1
20260901184604 71 55 2.0 8.0 0.00 0.00 0.00 58 1018.2
20260901183103 70 134 4.0 11.0 0.00 0.00 0.00 59 1018.2
20260901181543 70 81 5.0 9.0 0.00 0.00 0.00 59 1018.2
20260901180040 69 76 6.0 11.0 0.00 0.00 0.00 58 1018.1
20260901174535 68 108 4.0 10.0 0.00 0.00 0.00 59 1017.9
20260901173037 68 74 5.0 10.0 0.00 0.00 0.00 60 1017.8
20260901171525 69 117 3.0 10.0 0.00 0.00 0.00 60 1017.7
20260901170021 67 52 5.0 10.0 0.00 0.00 0.00 61 1017.8
20260901164516 66 96 4.0 9.0 0.00 0.00 0.00 62 1017.9
20260901163012 65 115 4.0 9.0 0.00 0.00 0.00 62 1018.3
20260901161508 65 93 4.0 10.0 0.00 0.00 0.00 63 1018.2
20260901160003 64 113 5.0 11.0 0.00 0.00 0.00 62 1018.1
20260901154618 64 56 6.0 9.0 0.00 0.00 0.00 63 1018.2
20260901153103 63 138 2.0 8.0 0.00 0.00 0.00 64 1018.4
20260901151550 63 80 5.0 10.0 0.00 0.00 0.00 64 1018.5
20260901150055 63 121 5.0 10.0 0.00 0.00 0.00 63 1018.5
20260901144543 62 90 6.0 11.0 0.00 0.00 0.00 64 1018.2
20260901143039 62 103 6.0 12.0 0.00 0.00 0.00 64 1017.8
20260901141532 62 86 5.0 11.0 0.00 0.00 0.00 64 1017.9
20260901140028 61 94 3.0 7.0 0.00 0.00 0.00 63 1018.1
20260901134524 61 114 3.0 9.0 0.00 0.00 0.00 63 1018.2
20260901133021 60 88 3.0 8.0 0.00 0.00 0.00 63 1018.5
20260901131519 60 138 3.0 7.0 0.00 0.00 0.00 61 1018.5
20260901130013 60 122 3.0 7.0 0.00 0.00 0.00 60 1018.8
20260901124521 60 135 2.0 4.0 0.00 0.00 0.00 59 1018.6
20260901123003 61 99 0.0 3.0 0.00 0.00 0.00 62 1018.9
20260901121605 61 98 1.0 3.0 0.00 0.00 0.00 63 1018.9
20260901120109 61 122 2.0 8.0 0.00 0.00 0.00 64 1018.6
20260901114552 61 157 3.0 6.0 0.00 0.00 0.00 62 1018.6
20260901113055 61 109 4.0 9.0 0.00 0.00 0.00 63 1018.5
20260901111541 61 137 3.0 8.0 0.00 0.00 0.00 64 1018.3